Year,Month,Day,Hour,Minute,Value (Times are PST for temperature in C)
2012,09,13,00,00,11.10
2012,09,13,00,01,11.00
2012,09,13,00,02,11.00
2012,09,13,00,03,10.90
2012,09,13,00,04,10.90
2012,09,13,00,05,10.90
2012,09,13,00,06,10.90
2012,09,13,00,07,10.80
2012,09,13,00,08,10.80
2012,09,13,00,09,10.80
2012,09,13,00,10,10.80
2012,09,13,00,11,10.70
2012,09,13,00,12,10.70
2012,09,13,00,13,10.60
2012,09,13,00,14,10.60
2012,09,13,00,15,10.50
2012,09,13,00,16,10.50
2012,09,13,00,17,10.40
2012,09,13,00,18,10.40
2012,09,13,00,19,10.40
2012,09,13,00,20,10.30
2012,09,13,00,21,10.30
2012,09,13,00,22,10.30
2012,09,13,00,23,10.20
2012,09,13,00,24,10.20
2012,09,13,00,25,10.20
2012,09,13,00,26,10.10
2012,09,13,00,27,10.10
2012,09,13,00,28,10.10
2012,09,13,00,29,10.00
2012,09,13,00,30,10.00
2012,09,13,00,31,10.00
2012,09,13,00,32,9.90
2012,09,13,00,33,9.90
2012,09,13,00,34,9.90
2012,09,13,00,35,9.90
2012,09,13,00,36,9.80
2012,09,13,00,37,9.80
2012,09,13,00,38,9.80
2012,09,13,00,39,9.80
2012,09,13,00,40,9.80
2012,09,13,00,41,9.80
2012,09,13,00,42,9.80
2012,09,13,00,43,9.80
2012,09,13,00,44,9.80
2012,09,13,00,45,9.80
2012,09,13,00,46,9.80
2012,09,13,00,47,9.80
2012,09,13,00,48,9.80
2012,09,13,00,49,9.80
2012,09,13,00,50,9.80
2012,09,13,00,51,9.80
2012,09,13,00,52,9.80
2012,09,13,00,53,9.80
2012,09,13,00,54,9.80
2012,09,13,00,55,9.80
2012,09,13,00,56,9.80
2012,09,13,00,57,9.80
2012,09,13,00,58,9.80
2012,09,13,00,59,9.80
2012,09,13,01,00,9.80
2012,09,13,01,01,9.80
2012,09,13,01,02,9.80
2012,09,13,01,03,9.80
2012,09,13,01,04,9.80
2012,09,13,01,05,9.80
2012,09,13,01,06,9.80
2012,09,13,01,07,9.80
2012,09,13,01,08,9.80
2012,09,13,01,09,9.80
2012,09,13,01,10,9.90
2012,09,13,01,11,9.90
2012,09,13,01,12,9.90
2012,09,13,01,13,10.00
2012,09,13,01,14,10.00
2012,09,13,01,15,10.10
2012,09,13,01,16,10.10
2012,09,13,01,17,10.10
2012,09,13,01,18,10.20
2012,09,13,01,19,10.20
2012,09,13,01,20,10.20
2012,09,13,01,21,10.30
2012,09,13,01,22,10.30
2012,09,13,01,23,10.30
2012,09,13,01,24,10.30
2012,09,13,01,25,10.30
2012,09,13,01,26,10.40
2012,09,13,01,27,10.40
2012,09,13,01,28,10.50
2012,09,13,01,29,10.50
2012,09,13,01,30,10.60
2012,09,13,01,31,10.60
2012,09,13,01,32,10.70
2012,09,13,01,33,10.70
2012,09,13,01,34,10.70
2012,09,13,01,35,10.70
2012,09,13,01,36,10.70
2012,09,13,01,37,10.70
2012,09,13,01,38,10.60
2012,09,13,01,39,10.60
2012,09,13,01,40,10.50
2012,09,13,01,41,10.50
2012,09,13,01,42,10.50
2012,09,13,01,43,10.40
2012,09,13,01,44,10.30
2012,09,13,01,45,10.30
2012,09,13,01,46,10.20
2012,09,13,01,47,10.20
2012,09,13,01,48,10.10
2012,09,13,01,49,10.10
2012,09,13,01,50,10.00
2012,09,13,01,51,9.90
2012,09,13,01,52,9.90
2012,09,13,01,53,9.80
2012,09,13,01,54,9.70
2012,09,13,01,55,9.70
2012,09,13,01,56,9.60
2012,09,13,01,57,9.60
2012,09,13,01,58,9.50
2012,09,13,01,59,9.50
2012,09,13,02,00,9.40
2012,09,13,02,01,9.40
2012,09,13,02,02,9.30
2012,09,13,02,03,9.30
2012,09,13,02,04,9.30
2012,09,13,02,05,9.20
2012,09,13,02,06,9.20
2012,09,13,02,07,9.20
2012,09,13,02,08,9.20
2012,09,13,02,09,9.10
2012,09,13,02,10,9.10
2012,09,13,02,11,9.10
2012,09,13,02,12,9.10
2012,09,13,02,13,9.00
2012,09,13,02,14,9.00
2012,09,13,02,15,9.00
2012,09,13,02,16,9.00
2012,09,13,02,17,8.90
2012,09,13,02,18,8.90
2012,09,13,02,19,8.90
2012,09,13,02,20,8.90
2012,09,13,02,21,8.90
2012,09,13,02,22,8.90
2012,09,13,02,23,9.00
2012,09,13,02,24,9.00
2012,09,13,02,25,9.00
2012,09,13,02,26,9.00
2012,09,13,02,27,9.00
2012,09,13,02,28,9.10
2012,09,13,02,29,9.10
2012,09,13,02,30,9.10
2012,09,13,02,31,9.10
2012,09,13,02,32,9.10
2012,09,13,02,33,9.10
2012,09,13,02,34,9.10
2012,09,13,02,35,9.20
2012,09,13,02,36,9.20
2012,09,13,02,37,9.20
2012,09,13,02,38,9.20
2012,09,13,02,39,9.30
2012,09,13,02,40,9.30
2012,09,13,02,41,9.40
2012,09,13,02,42,9.40
2012,09,13,02,43,9.50
2012,09,13,02,44,9.60
2012,09,13,02,45,9.60
2012,09,13,02,46,9.70
2012,09,13,02,47,9.70
2012,09,13,02,48,9.80
2012,09,13,02,49,9.80
2012,09,13,02,50,9.80
2012,09,13,02,51,9.80
2012,09,13,02,52,9.80
2012,09,13,02,53,9.80
2012,09,13,02,54,9.80
2012,09,13,02,55,9.80
2012,09,13,02,56,9.80
2012,09,13,02,57,9.80
2012,09,13,02,58,9.70
2012,09,13,02,59,9.70
2012,09,13,03,00,9.60
2012,09,13,03,01,9.60
2012,09,13,03,02,9.50
2012,09,13,03,03,9.50
2012,09,13,03,04,9.40
2012,09,13,03,05,9.40
2012,09,13,03,06,9.40
2012,09,13,03,07,9.40
2012,09,13,03,08,9.40
2012,09,13,03,09,9.40
2012,09,13,03,10,9.40
2012,09,13,03,11,9.40
2012,09,13,03,12,9.40
2012,09,13,03,13,9.40
2012,09,13,03,14,9.40
2012,09,13,03,15,9.40
2012,09,13,03,16,9.40
2012,09,13,03,17,9.30
2012,09,13,03,18,9.30
2012,09,13,03,19,9.30
2012,09,13,03,20,9.20
2012,09,13,03,21,9.20
2012,09,13,03,22,9.20
2012,09,13,03,23,9.20
2012,09,13,03,24,9.20
2012,09,13,03,25,9.20
2012,09,13,03,26,9.10
2012,09,13,03,27,9.10
2012,09,13,03,28,9.10
2012,09,13,03,29,9.00
2012,09,13,03,30,9.00
2012,09,13,03,31,9.00
2012,09,13,03,32,8.90
2012,09,13,03,33,8.90
2012,09,13,03,34,8.90
2012,09,13,03,35,8.80
2012,09,13,03,36,8.80
2012,09,13,03,37,8.80
2012,09,13,03,38,8.70
2012,09,13,03,39,8.70
2012,09,13,03,40,8.70
2012,09,13,03,41,8.60
2012,09,13,03,42,8.60
2012,09,13,03,43,8.50
2012,09,13,03,44,8.50
2012,09,13,03,45,8.50
2012,09,13,03,46,8.40
2012,09,13,03,47,8.40
2012,09,13,03,48,8.30
2012,09,13,03,49,8.30
2012,09,13,03,50,8.30
2012,09,13,03,51,8.30
2012,09,13,03,52,8.30
2012,09,13,03,53,8.30
2012,09,13,03,54,8.30
2012,09,13,03,55,8.30
2012,09,13,03,56,8.30
2012,09,13,03,57,8.30
2012,09,13,03,58,8.30
2012,09,13,03,59,8.30
2012,09,13,04,00,8.30
2012,09,13,04,01,8.30
2012,09,13,04,02,8.30
2012,09,13,04,03,8.30
2012,09,13,04,04,8.30
2012,09,13,04,05,8.30
2012,09,13,04,06,8.30
2012,09,13,04,07,8.30
2012,09,13,04,08,8.30
2012,09,13,04,09,8.30
2012,09,13,04,10,8.30
2012,09,13,04,11,8.30
2012,09,13,04,12,8.30
2012,09,13,04,13,8.30
2012,09,13,04,14,8.20
2012,09,13,04,15,8.20
2012,09,13,04,16,8.20
2012,09,13,04,17,8.20
2012,09,13,04,18,8.10
2012,09,13,04,19,8.10
2012,09,13,04,20,8.00
2012,09,13,04,21,8.00
2012,09,13,04,22,7.90
2012,09,13,04,23,7.90
2012,09,13,04,24,8.00
2012,09,13,04,25,8.20
2012,09,13,04,26,8.50
2012,09,13,04,27,8.80
2012,09,13,04,28,9.20
2012,09,13,04,29,9.60
2012,09,13,04,30,10.00
2012,09,13,04,31,10.30
2012,09,13,04,32,10.60
2012,09,13,04,33,10.80
2012,09,13,04,34,11.00
2012,09,13,04,35,11.30
2012,09,13,04,36,11.50
2012,09,13,04,37,11.70
2012,09,13,04,38,11.90
2012,09,13,04,39,12.10
2012,09,13,04,40,12.30
2012,09,13,04,41,12.40
2012,09,13,04,42,12.50
2012,09,13,04,43,12.60
2012,09,13,04,44,12.70
2012,09,13,04,45,12.80
2012,09,13,04,46,12.90
2012,09,13,04,47,12.90
2012,09,13,04,48,13.00
2012,09,13,04,49,13.10
2012,09,13,04,50,13.10
2012,09,13,04,51,13.20
2012,09,13,04,52,13.20
2012,09,13,04,53,13.30
2012,09,13,04,54,13.30
2012,09,13,04,55,13.30
2012,09,13,04,56,13.30
2012,09,13,04,57,13.40
2012,09,13,04,58,13.40
2012,09,13,04,59,13.40
2012,09,13,05,00,13.50
2012,09,13,05,01,13.50
2012,09,13,05,02,13.50
2012,09,13,05,03,13.50
2012,09,13,05,04,13.60
2012,09,13,05,05,13.60
2012,09,13,05,06,13.60
2012,09,13,05,07,13.60
2012,09,13,05,08,13.60
2012,09,13,05,09,13.70
2012,09,13,05,10,13.70
2012,09,13,05,11,13.70
2012,09,13,05,12,13.70
2012,09,13,05,13,13.70
2012,09,13,05,14,13.70
2012,09,13,05,15,13.70
2012,09,13,05,16,13.70
2012,09,13,05,17,13.70
2012,09,13,05,18,13.70
2012,09,13,05,19,13.70
2012,09,13,05,20,13.70
2012,09,13,05,21,13.70
2012,09,13,05,22,13.60
2012,09,13,05,23,13.60
2012,09,13,05,24,13.60
2012,09,13,05,25,13.60
2012,09,13,05,26,13.60
2012,09,13,05,27,13.60
2012,09,13,05,28,13.60
2012,09,13,05,29,13.60
2012,09,13,05,30,13.60
2012,09,13,05,31,13.60
2012,09,13,05,32,13.50
2012,09,13,05,33,13.50
2012,09,13,05,34,13.50
2012,09,13,05,35,13.60
2012,09,13,05,36,13.50
2012,09,13,05,37,13.50
2012,09,13,05,38,13.50
2012,09,13,05,39,13.50
2012,09,13,05,40,13.50
2012,09,13,05,41,13.50
2012,09,13,05,42,13.50
2012,09,13,05,43,13.50
2012,09,13,05,44,13.50
2012,09,13,05,45,13.50
2012,09,13,05,46,13.50
2012,09,13,05,47,13.50
2012,09,13,05,48,13.50
2012,09,13,05,49,13.50
2012,09,13,05,50,13.50
2012,09,13,05,51,13.60
2012,09,13,05,52,13.50
2012,09,13,05,53,13.50
2012,09,13,05,54,13.50
2012,09,13,05,55,13.40
2012,09,13,05,56,13.40
2012,09,13,05,57,13.40
2012,09,13,05,58,13.30
2012,09,13,05,59,13.30
2012,09,13,06,00,13.30
2012,09,13,06,01,13.30
2012,09,13,06,02,13.30
2012,09,13,06,03,13.20
2012,09,13,06,04,13.20
2012,09,13,06,05,13.20
2012,09,13,06,06,13.10
2012,09,13,06,07,13.10
2012,09,13,06,08,13.10
2012,09,13,06,09,13.00
2012,09,13,06,10,13.00
2012,09,13,06,11,12.90
2012,09,13,06,12,12.90
2012,09,13,06,13,12.90
2012,09,13,06,14,12.90
2012,09,13,06,15,12.90
2012,09,13,06,16,12.90
2012,09,13,06,17,12.90
2012,09,13,06,18,12.90
2012,09,13,06,19,12.90
2012,09,13,06,20,12.90
2012,09,13,06,21,13.00
2012,09,13,06,22,13.00
2012,09,13,06,23,13.00
2012,09,13,06,24,13.00
2012,09,13,06,25,13.00
2012,09,13,06,26,13.10
2012,09,13,06,27,13.10
2012,09,13,06,28,13.10
2012,09,13,06,29,13.00
2012,09,13,06,30,13.00
2012,09,13,06,31,13.00
2012,09,13,06,32,12.90
2012,09,13,06,33,12.90
2012,09,13,06,34,12.90
2012,09,13,06,35,12.90
2012,09,13,06,36,12.80
2012,09,13,06,37,12.80
2012,09,13,06,38,12.80
2012,09,13,06,39,12.70
2012,09,13,06,40,12.70
2012,09,13,06,41,12.60
2012,09,13,06,42,12.60
2012,09,13,06,43,12.50
2012,09,13,06,44,12.50
2012,09,13,06,45,12.40
2012,09,13,06,46,12.40
2012,09,13,06,47,12.40
2012,09,13,06,48,12.30
2012,09,13,06,49,12.30
2012,09,13,06,50,12.30
2012,09,13,06,51,12.30
2012,09,13,06,52,12.30
2012,09,13,06,53,12.20
2012,09,13,06,54,12.20
2012,09,13,06,55,12.20
2012,09,13,06,56,12.20
2012,09,13,06,57,12.20
2012,09,13,06,58,12.20
2012,09,13,06,59,12.10
2012,09,13,07,00,12.10
2012,09,13,07,01,12.10
2012,09,13,07,02,12.10
2012,09,13,07,03,12.10
2012,09,13,07,04,12.10
2012,09,13,07,05,12.10
2012,09,13,07,06,12.10
2012,09,13,07,07,12.10
2012,09,13,07,08,12.10
2012,09,13,07,09,12.10
2012,09,13,07,10,12.10
2012,09,13,07,11,12.10
2012,09,13,07,12,12.20
2012,09,13,07,13,12.20
2012,09,13,07,14,12.20
2012,09,13,07,15,12.30
2012,09,13,07,16,12.30
2012,09,13,07,17,12.40
2012,09,13,07,18,12.50
2012,09,13,07,19,12.50
2012,09,13,07,20,12.60
2012,09,13,07,21,12.70
2012,09,13,07,22,12.70
2012,09,13,07,23,12.80
2012,09,13,07,24,12.80
2012,09,13,07,25,12.90
2012,09,13,07,26,12.90
2012,09,13,07,27,12.90
2012,09,13,07,28,12.90
2012,09,13,07,29,13.00
2012,09,13,07,30,13.00
2012,09,13,07,31,13.10
2012,09,13,07,32,13.10
2012,09,13,07,33,13.10
2012,09,13,07,34,13.20
2012,09,13,07,35,13.20
2012,09,13,07,36,13.20
2012,09,13,07,37,13.30
2012,09,13,07,38,13.30
2012,09,13,07,39,13.30
2012,09,13,07,40,13.40
2012,09,13,07,41,13.40
2012,09,13,07,42,13.50
2012,09,13,07,43,13.50
2012,09,13,07,44,13.60
2012,09,13,07,45,13.60
2012,09,13,07,46,13.70
2012,09,13,07,47,13.70
2012,09,13,07,48,13.70
2012,09,13,07,49,13.80
2012,09,13,07,50,13.80
2012,09,13,07,51,13.80
2012,09,13,07,52,13.80
2012,09,13,07,53,13.90
2012,09,13,07,54,13.90
2012,09,13,07,55,13.90
2012,09,13,07,56,13.90
2012,09,13,07,57,13.90
2012,09,13,07,58,13.90
2012,09,13,07,59,14.00
2012,09,13,08,00,14.00
2012,09,13,08,01,14.00
2012,09,13,08,02,14.00
2012,09,13,08,03,14.00
2012,09,13,08,04,14.10
2012,09,13,08,05,14.10
2012,09,13,08,06,14.10
2012,09,13,08,07,14.10
2012,09,13,08,08,14.10
2012,09,13,08,09,14.10
2012,09,13,08,10,14.20
2012,09,13,08,11,14.20
2012,09,13,08,12,14.20
2012,09,13,08,13,14.20
2012,09,13,08,14,14.20
2012,09,13,08,15,14.20
2012,09,13,08,16,14.20
2012,09,13,08,17,14.30
2012,09,13,08,18,14.30
2012,09,13,08,19,14.30
2012,09,13,08,20,14.30
2012,09,13,08,21,14.30
2012,09,13,08,22,14.30
2012,09,13,08,23,14.30
2012,09,13,08,24,14.30
2012,09,13,08,25,14.40
2012,09,13,08,26,14.40
2012,09,13,08,27,14.40
2012,09,13,08,28,14.40
2012,09,13,08,29,14.40
2012,09,13,08,30,14.40
2012,09,13,08,31,14.40
2012,09,13,08,32,14.40
2012,09,13,08,33,14.40
2012,09,13,08,34,14.40
2012,09,13,08,35,14.50
2012,09,13,08,36,14.50
2012,09,13,08,37,14.50
2012,09,13,08,38,14.60
2012,09,13,08,39,14.60
2012,09,13,08,40,14.60
2012,09,13,08,41,14.70
2012,09,13,08,42,14.70
2012,09,13,08,43,14.80
2012,09,13,08,44,14.90
2012,09,13,08,45,15.00
2012,09,13,08,46,15.00
2012,09,13,08,47,15.00
2012,09,13,08,48,15.00
2012,09,13,08,49,15.00
2012,09,13,08,50,15.00
2012,09,13,08,51,15.10
2012,09,13,08,52,15.20
2012,09,13,08,53,15.30
2012,09,13,08,54,15.30
2012,09,13,08,55,15.40
2012,09,13,08,56,15.40
2012,09,13,08,57,15.50
2012,09,13,08,58,15.50
2012,09,13,08,59,15.60
2012,09,13,09,00,15.60
2012,09,13,09,01,15.70
2012,09,13,09,02,15.70
2012,09,13,09,03,15.80
2012,09,13,09,04,15.80
2012,09,13,09,05,15.80
2012,09,13,09,06,15.90
2012,09,13,09,07,16.00
2012,09,13,09,08,16.00
2012,09,13,09,09,16.10
2012,09,13,09,10,16.10
2012,09,13,09,11,16.10
2012,09,13,09,12,16.10
2012,09,13,09,13,16.20
2012,09,13,09,14,16.20
2012,09,13,09,15,16.20
2012,09,13,09,16,16.20
2012,09,13,09,17,16.20
2012,09,13,09,18,16.20
2012,09,13,09,19,16.20
2012,09,13,09,20,16.30
2012,09,13,09,21,16.30
2012,09,13,09,22,16.30
2012,09,13,09,23,16.30
2012,09,13,09,24,16.30
2012,09,13,09,25,16.30
2012,09,13,09,26,16.30
2012,09,13,09,27,16.30
2012,09,13,09,28,16.30
2012,09,13,09,29,16.30
2012,09,13,09,30,16.30
2012,09,13,09,31,16.40
2012,09,13,09,32,16.40
2012,09,13,09,33,16.40
2012,09,13,09,34,16.40
2012,09,13,09,35,16.50
2012,09,13,09,36,16.50
2012,09,13,09,37,16.60
2012,09,13,09,38,16.60
2012,09,13,09,39,16.70
2012,09,13,09,40,16.70
2012,09,13,09,41,16.70
2012,09,13,09,42,16.70
2012,09,13,09,43,16.70
2012,09,13,09,44,16.60
2012,09,13,09,45,16.60
2012,09,13,09,46,16.60
2012,09,13,09,47,16.60
2012,09,13,09,48,16.60
2012,09,13,09,49,16.60
2012,09,13,09,50,16.60
2012,09,13,09,51,16.60
2012,09,13,09,52,16.70
2012,09,13,09,53,16.70
2012,09,13,09,54,16.70
2012,09,13,09,55,16.70
2012,09,13,09,56,16.70
2012,09,13,09,57,16.80
2012,09,13,09,58,16.80
2012,09,13,09,59,16.80
2012,09,13,10,00,16.80
2012,09,13,10,01,16.80
2012,09,13,10,02,16.80
2012,09,13,10,03,16.80
2012,09,13,10,04,16.80
2012,09,13,10,05,16.80
2012,09,13,10,06,16.80
2012,09,13,10,07,16.80
2012,09,13,10,08,16.80
2012,09,13,10,09,16.80
2012,09,13,10,10,16.90
2012,09,13,10,11,16.90
2012,09,13,10,12,17.00
2012,09,13,10,13,17.00
2012,09,13,10,14,17.10
2012,09,13,10,15,17.10
2012,09,13,10,16,17.10
2012,09,13,10,17,17.20
2012,09,13,10,18,17.30
2012,09,13,10,19,17.30
2012,09,13,10,20,17.30
2012,09,13,10,21,17.40
2012,09,13,10,22,17.40
2012,09,13,10,23,17.40
2012,09,13,10,24,17.40
2012,09,13,10,25,17.50
2012,09,13,10,26,17.50
2012,09,13,10,27,17.60
2012,09,13,10,28,17.60
2012,09,13,10,29,17.60
2012,09,13,10,30,17.60
2012,09,13,10,31,17.70
2012,09,13,10,32,17.70
2012,09,13,10,33,17.70
2012,09,13,10,34,17.70
2012,09,13,10,35,17.70
2012,09,13,10,36,17.60
2012,09,13,10,37,17.50
2012,09,13,10,38,17.50
2012,09,13,10,39,17.40
2012,09,13,10,40,17.40
2012,09,13,10,41,17.40
2012,09,13,10,42,17.40
2012,09,13,10,43,17.40
2012,09,13,10,44,17.50
2012,09,13,10,45,17.50
2012,09,13,10,46,17.50
2012,09,13,10,47,17.50
2012,09,13,10,48,17.50
2012,09,13,10,49,17.50
2012,09,13,10,50,17.50
2012,09,13,10,51,17.60
2012,09,13,10,52,17.60
2012,09,13,10,53,17.60
2012,09,13,10,54,17.60
2012,09,13,10,55,17.60
2012,09,13,10,56,17.60
2012,09,13,10,57,17.60
2012,09,13,10,58,17.60
2012,09,13,10,59,17.60
2012,09,13,11,00,17.60
2012,09,13,11,01,17.60
2012,09,13,11,02,17.60
2012,09,13,11,03,17.60
2012,09,13,11,04,17.60
2012,09,13,11,05,17.60
2012,09,13,11,06,17.60
2012,09,13,11,07,17.70
2012,09,13,11,08,17.70
2012,09,13,11,09,17.70
2012,09,13,11,10,17.70
2012,09,13,11,11,17.70
2012,09,13,11,12,17.80
2012,09,13,11,13,17.80
2012,09,13,11,14,17.90
2012,09,13,11,15,17.90
2012,09,13,11,16,18.00
2012,09,13,11,17,18.00
2012,09,13,11,18,18.10
2012,09,13,11,19,18.20
2012,09,13,11,20,18.20
2012,09,13,11,21,18.30
2012,09,13,11,22,18.30
2012,09,13,11,23,18.30
2012,09,13,11,24,18.30
2012,09,13,11,25,18.30
2012,09,13,11,26,18.40
2012,09,13,11,27,18.40
2012,09,13,11,28,18.40
2012,09,13,11,29,18.40
2012,09,13,11,30,18.40
2012,09,13,11,31,18.40
2012,09,13,11,32,18.40
2012,09,13,11,33,18.40
2012,09,13,11,34,18.40
2012,09,13,11,35,18.40
2012,09,13,11,36,18.40
2012,09,13,11,37,18.50
2012,09,13,11,38,18.60
2012,09,13,11,39,18.60
2012,09,13,11,40,18.60
2012,09,13,11,41,18.70
2012,09,13,11,42,18.70
2012,09,13,11,43,18.70
2012,09,13,11,44,18.70
2012,09,13,11,45,18.70
2012,09,13,11,46,18.80
2012,09,13,11,47,18.80
2012,09,13,11,48,18.80
2012,09,13,11,49,18.70
2012,09,13,11,50,18.70
2012,09,13,11,51,18.70
2012,09,13,11,52,18.70
2012,09,13,11,53,18.70
2012,09,13,11,54,18.60
2012,09,13,11,55,18.60
2012,09,13,11,56,18.70
2012,09,13,11,57,18.70
2012,09,13,11,58,18.70
2012,09,13,11,59,18.70
2012,09,13,12,00,18.70
2012,09,13,12,01,18.70
2012,09,13,12,02,18.70
2012,09,13,12,03,18.70
2012,09,13,12,04,18.70
2012,09,13,12,05,18.80
2012,09,13,12,06,18.80
2012,09,13,12,07,18.80
2012,09,13,12,08,18.80
2012,09,13,12,09,18.80
2012,09,13,12,10,18.80
2012,09,13,12,11,18.80
2012,09,13,12,12,18.80
2012,09,13,12,13,18.80
2012,09,13,12,14,18.90
2012,09,13,12,15,18.90
2012,09,13,12,16,18.90
2012,09,13,12,17,18.90
2012,09,13,12,18,18.90
2012,09,13,12,19,18.90
2012,09,13,12,20,18.90
2012,09,13,12,21,18.90
2012,09,13,12,22,18.90
2012,09,13,12,23,18.90
2012,09,13,12,24,18.90
2012,09,13,12,25,19.00
2012,09,13,12,26,19.00
2012,09,13,12,27,19.10
2012,09,13,12,28,19.10
2012,09,13,12,29,19.10
2012,09,13,12,30,19.20
2012,09,13,12,31,19.20
2012,09,13,12,32,19.20
2012,09,13,12,33,19.30
2012,09,13,12,34,19.30
2012,09,13,12,35,19.40
2012,09,13,12,36,19.40
2012,09,13,12,37,19.40
2012,09,13,12,38,19.40
2012,09,13,12,39,19.50
2012,09,13,12,40,19.40
2012,09,13,12,41,19.40
2012,09,13,12,42,19.40
2012,09,13,12,43,19.40
2012,09,13,12,44,19.40
2012,09,13,12,45,19.40
2012,09,13,12,46,19.50
2012,09,13,12,47,19.50
2012,09,13,12,48,19.60
2012,09,13,12,49,19.70
2012,09,13,12,50,19.70
2012,09,13,12,51,19.70
2012,09,13,12,52,19.70
2012,09,13,12,53,19.80
2012,09,13,12,54,19.80
2012,09,13,12,55,19.80
2012,09,13,12,56,19.80
2012,09,13,12,57,19.80
2012,09,13,12,58,19.90
2012,09,13,12,59,19.90
2012,09,13,13,00,20.00
2012,09,13,13,01,20.00
2012,09,13,13,02,20.10
2012,09,13,13,03,20.10
2012,09,13,13,04,20.10
2012,09,13,13,05,20.20
2012,09,13,13,06,20.20
2012,09,13,13,07,20.20
2012,09,13,13,08,20.20
2012,09,13,13,09,20.20
2012,09,13,13,10,20.30
2012,09,13,13,11,20.30
2012,09,13,13,12,20.30
2012,09,13,13,13,20.30
2012,09,13,13,14,20.20
2012,09,13,13,15,20.20
2012,09,13,13,16,20.20
2012,09,13,13,17,20.20
2012,09,13,13,18,20.30
2012,09,13,13,19,20.30
2012,09,13,13,20,20.30
2012,09,13,13,21,20.40
2012,09,13,13,22,20.40
2012,09,13,13,23,20.40
2012,09,13,13,24,20.40
2012,09,13,13,25,20.50
2012,09,13,13,26,20.60
2012,09,13,13,27,20.60
2012,09,13,13,28,20.50
2012,09,13,13,29,20.50
2012,09,13,13,30,20.40
2012,09,13,13,31,20.40
2012,09,13,13,32,20.40
2012,09,13,13,33,20.40
2012,09,13,13,34,20.40
2012,09,13,13,35,20.40
2012,09,13,13,36,20.40
2012,09,13,13,37,20.40
2012,09,13,13,38,20.50
2012,09,13,13,39,20.50
2012,09,13,13,40,20.60
2012,09,13,13,41,20.60
2012,09,13,13,42,20.60
2012,09,13,13,43,20.70
2012,09,13,13,44,20.70
2012,09,13,13,45,20.70
2012,09,13,13,46,20.70
2012,09,13,13,47,20.70
2012,09,13,13,48,20.70
2012,09,13,13,49,20.80
2012,09,13,13,50,20.80
2012,09,13,13,51,20.80
2012,09,13,13,52,20.90
2012,09,13,13,53,20.90
2012,09,13,13,54,20.90
2012,09,13,13,55,20.90
2012,09,13,13,56,21.00
2012,09,13,13,57,21.00
2012,09,13,13,58,21.10
2012,09,13,13,59,21.10
2012,09,13,14,00,21.10
2012,09,13,14,01,21.10
2012,09,13,14,02,21.20
2012,09,13,14,03,21.20
2012,09,13,14,04,21.30
2012,09,13,14,05,21.30
2012,09,13,14,06,21.30
2012,09,13,14,07,21.30
2012,09,13,14,08,21.20
2012,09,13,14,09,21.20
2012,09,13,14,10,21.20
2012,09,13,14,11,21.20
2012,09,13,14,12,21.30
2012,09,13,14,13,21.30
2012,09,13,14,14,21.30
2012,09,13,14,15,21.40
2012,09,13,14,16,21.40
2012,09,13,14,17,21.50
2012,09,13,14,18,21.50
2012,09,13,14,19,21.50
2012,09,13,14,20,21.40
2012,09,13,14,21,21.40
2012,09,13,14,22,21.30
2012,09,13,14,23,21.40
2012,09,13,14,24,21.50
2012,09,13,14,25,21.50
2012,09,13,14,26,21.60
2012,09,13,14,27,21.70
2012,09,13,14,28,21.70
2012,09,13,14,29,21.70
2012,09,13,14,30,21.70
2012,09,13,14,31,21.70
2012,09,13,14,32,21.80
2012,09,13,14,33,21.80
2012,09,13,14,34,21.80
2012,09,13,14,35,21.90
2012,09,13,14,36,21.90
2012,09,13,14,37,21.90
2012,09,13,14,38,21.90
2012,09,13,14,39,21.80
2012,09,13,14,40,21.80
2012,09,13,14,41,21.80
2012,09,13,14,42,21.80
2012,09,13,14,43,21.90
2012,09,13,14,44,21.90
2012,09,13,14,45,22.00
2012,09,13,14,46,22.00
2012,09,13,14,47,22.10
2012,09,13,14,48,22.10
2012,09,13,14,49,22.10
2012,09,13,14,50,22.20
2012,09,13,14,51,22.30
2012,09,13,14,52,22.30
2012,09,13,14,53,22.40
2012,09,13,14,54,22.40
2012,09,13,14,55,22.40
2012,09,13,14,56,22.50
2012,09,13,14,57,22.60
2012,09,13,14,58,22.60
2012,09,13,14,59,22.60
2012,09,13,15,00,22.50
2012,09,13,15,01,22.50
2012,09,13,15,02,22.40
2012,09,13,15,03,22.40
2012,09,13,15,04,22.40
2012,09,13,15,05,22.40
2012,09,13,15,06,22.30
2012,09,13,15,07,22.30
2012,09,13,15,08,22.20
2012,09,13,15,09,22.20
2012,09,13,15,10,22.10
2012,09,13,15,11,22.00
2012,09,13,15,12,21.90
2012,09,13,15,13,21.90
2012,09,13,15,14,21.80
2012,09,13,15,15,21.80
2012,09,13,15,16,21.80
2012,09,13,15,17,21.80
2012,09,13,15,18,21.70
2012,09,13,15,19,21.70
2012,09,13,15,20,21.60
2012,09,13,15,21,21.60
2012,09,13,15,22,21.50
2012,09,13,15,23,21.50
2012,09,13,15,24,21.40
2012,09,13,15,25,21.40
2012,09,13,15,26,21.40
2012,09,13,15,27,21.40
2012,09,13,15,28,21.50
2012,09,13,15,29,21.50
2012,09,13,15,30,21.50
2012,09,13,15,31,21.60
2012,09,13,15,32,21.60
2012,09,13,15,33,21.70
2012,09,13,15,34,21.70
2012,09,13,15,35,21.70
2012,09,13,15,36,21.70
2012,09,13,15,37,21.70
2012,09,13,15,38,21.70
2012,09,13,15,39,21.70
2012,09,13,15,40,21.60
2012,09,13,15,41,21.60
2012,09,13,15,42,21.60
2012,09,13,15,43,21.60
2012,09,13,15,44,21.50
2012,09,13,15,45,21.50
2012,09,13,15,46,21.40
2012,09,13,15,47,21.40
2012,09,13,15,48,21.30
2012,09,13,15,49,21.40
2012,09,13,15,50,21.40
2012,09,13,15,51,21.40
2012,09,13,15,52,21.40
2012,09,13,15,53,21.50
2012,09,13,15,54,21.50
2012,09,13,15,55,21.60
2012,09,13,15,56,21.60
2012,09,13,15,57,21.60
2012,09,13,15,58,21.70
2012,09,13,15,59,21.70
2012,09,13,16,00,21.70
2012,09,13,16,01,21.70
2012,09,13,16,02,21.70
2012,09,13,16,03,21.70
2012,09,13,16,04,21.70
2012,09,13,16,05,21.70
2012,09,13,16,06,21.70
2012,09,13,16,07,21.70
2012,09,13,16,08,21.70
2012,09,13,16,09,21.80
2012,09,13,16,10,21.80
2012,09,13,16,11,21.90
2012,09,13,16,12,22.00
2012,09,13,16,13,22.10
2012,09,13,16,14,22.10
2012,09,13,16,15,22.20
2012,09,13,16,16,22.20
2012,09,13,16,17,22.20
2012,09,13,16,18,22.20
2012,09,13,16,19,22.20
2012,09,13,16,20,22.20
2012,09,13,16,21,22.20
2012,09,13,16,22,22.20
2012,09,13,16,23,22.20
2012,09,13,16,24,22.20
2012,09,13,16,25,22.20
2012,09,13,16,26,22.20
2012,09,13,16,27,22.20
2012,09,13,16,28,22.20
2012,09,13,16,29,22.30
2012,09,13,16,30,22.30
2012,09,13,16,31,22.30
2012,09,13,16,32,22.30
2012,09,13,16,33,22.30
2012,09,13,16,34,22.30
2012,09,13,16,35,22.40
2012,09,13,16,36,22.40
2012,09,13,16,37,22.40
2012,09,13,16,38,22.40
2012,09,13,16,39,22.30
2012,09,13,16,40,22.30
2012,09,13,16,41,22.30
2012,09,13,16,42,22.30
2012,09,13,16,43,22.30
2012,09,13,16,44,22.30
2012,09,13,16,45,22.30
2012,09,13,16,46,22.30
2012,09,13,16,47,22.30
2012,09,13,16,48,22.40
2012,09,13,16,49,22.40
2012,09,13,16,50,22.40
2012,09,13,16,51,22.40
2012,09,13,16,52,22.40
2012,09,13,16,53,22.50
2012,09,13,16,54,22.50
2012,09,13,16,55,22.50
2012,09,13,16,56,22.40
2012,09,13,16,57,22.40
2012,09,13,16,58,22.30
2012,09,13,16,59,22.30
2012,09,13,17,00,22.30
2012,09,13,17,01,22.30
2012,09,13,17,02,22.30
2012,09,13,17,03,22.30
2012,09,13,17,04,22.30
2012,09,13,17,05,22.30
2012,09,13,17,06,22.20
2012,09,13,17,07,22.20
2012,09,13,17,08,22.20
2012,09,13,17,09,22.20
2012,09,13,17,10,22.20
2012,09,13,17,11,22.10
2012,09,13,17,12,22.20
2012,09,13,17,13,22.20
2012,09,13,17,14,22.20
2012,09,13,17,15,22.20
2012,09,13,17,16,22.20
2012,09,13,17,17,22.20
2012,09,13,17,18,22.20
2012,09,13,17,19,22.20
2012,09,13,17,20,22.20
2012,09,13,17,21,22.20
2012,09,13,17,22,22.30
2012,09,13,17,23,22.30
2012,09,13,17,24,22.30
2012,09,13,17,25,22.30
2012,09,13,17,26,22.30
2012,09,13,17,27,22.20
2012,09,13,17,28,22.20